Regional Weather Roundup
Issued by NWS

Home | Current Version | Previous Version | Text Only | Print | Product List | Glossary Off
Versions: 1 2 3 4 5 6 7 8 9 10 11 12 13 14 15 16 17 18 19 20 21 22 23 24 25 26 27 28 29 30 31 32 33 34 35 36 37 38 39 40 41 42 43 44 45 46 47 48 49 50

000
ASUS45 KBOU 180107
RWRCO

WEATHER ROUNDUP FOR COLORADO
NATIONAL WEATHER SERVICE DENVER/BOULDER CO
700 PM MDT THU AUG 17 2017

NOTE: "FAIR" INDICATES FEW OR NO CLOUDS BELOW 12000 FEET WITH NO
SIGNIFICANT WEATHER AND/OR OBSTRUCTIONS TO VISIBILITY.

COZ001>005-013-030-031-180200-
...NORTHWEST COLORADO...

CITY           SKY/WX    TMP DP  RH WIND       PRES   REMARKS
CRAIG          FAIR      80  29  15 W15       30.18S
HAYDEN         FAIR      78  32  18 W17       30.21S
MEEKER         FAIR      81  27  14 NW15      30.20S
RABBIT EARS PA FAIR      54  34  47 NW5       30.51S
STEAMBOAT SPGS CLOUDY    73  37  26 W9        30.22F
WALDEN         FAIR      70  32  24 W17       30.33S
$$

COZ006>008-011-180200-
...WEST CENTRAL VALLEYS...

CITY           SKY/WX    TMP DP  RH WIND       PRES   REMARKS
GRAND JUNCTION FAIR      88  30  12 NW9       30.08S
MONTROSE       FAIR      82  37  20 N3        30.17F
EAGLE          FAIR      77  34  21 W12       30.25S
RIFLE          FAIR      84  33  16 W12       30.14F
DELTA          FAIR      90  28  11 NW7       30.12S
NUCLA          FAIR      79  25  13 NW5       30.21R
$$

COZ017>023-064>068-180200-
...SOUTHWEST COLORADO...

CITY           SKY/WX    TMP DP  RH WIND       PRES   REMARKS
DURANGO        FAIR      80  26  13 NW12      30.23S
CORTEZ         FAIR      84  27  12 W9        30.18S
PAGOSA SPRINGS CLOUDY    72  28  19 NW5       30.34R
TELLURIDE      FAIR      67  28  23 CALM      30.45S
WOLF CREEK PAS FAIR      46  32  57 CALM      30.69F
$$

COZ009-010-012-014-032>034-037-058>063-180200-
...CENTRAL COLORADO...

CITY           SKY/WX    TMP DP  RH WIND       PRES   REMARKS
ASPEN          FAIR      66  39  37 SE9       30.35S
BUENA VISTA    FAIR      68  32  26 NW17G23   30.34S
COPPER MTN     FAIR      54  32  43 W10G16    30.64S
BERTHOUD PASS  FAIR      45  39  81 NW24      30.64S
COTTONWOOD PAS FAIR      64  23  20 CALM      30.48S
GUNNISON       FAIR      70  37  29 N12       30.32S
KREMMLING      FAIR      73  36  25 SW5       30.29S
LEADVILLE      MOCLDY    57  32  38 W3        30.50F
MONARCH PASS   FAIR      54  28  37 W17G28    30.74S
SALIDA         FAIR      76  31  19 N12G17    30.36S
SUNLIGHT       FAIR      55  32  41 CALM      30.58F
WILKERSON PASS FAIR      50  32  50 NW14G24   30.61S
$$

COZ069>075-180200-
...SAN LUIS VALLEY/SANGRE DE CRISTO MOUNTAINS...

CITY           SKY/WX    TMP DP  RH WIND       PRES   REMARKS
ALAMOSA        FAIR      72  32  23 NW9       30.30R
DEL NORTE      MOCLDY    68  36  30 W15       30.36R
LA VETA PASS   NOT AVBL
SAGUACHE       MOCLDY    63  45  51 W16       30.34R
$$

COZ035-036-038>040-180200-
...NORTHERN COLORADO FRONT RANGE...

CITY           SKY/WX    TMP DP  RH WIND       PRES   REMARKS
DENVER INTL AP FAIR      81  38  21 S10       30.11S
DMNS CITY PARK   N/A     79  39  23 SW5       30.10F
AURORA         PTCLDY    72  47  40 S6        30.14F
FRONT RANGE AP PTCLDY    81  45  28 SE9       30.13F
ERIE MUNI ARPT FAIR      81  35  18 SE7       30.12F
BOULDER MUN AP FAIR      81  41  24 CALM      30.08S
CENTENNIAL     FAIR      77  36  22 SW9       30.15F
BROOMFIELD     NOT AVBL
FORT COLLINS   FAIR      78  49  35 SW3       30.08R
LONGMONT       FAIR      85  40  20 CALM      30.08F
$$

COZ041-046-047-076>085-087-088-180200-
...PIKES PEAK/PALMER DIVIDE AND SOUTHERN FOOTHILLS...

CITY           SKY/WX    TMP DP  RH WIND       PRES   REMARKS
COLO. SPRINGS  MOCLDY    74  46  36 N6        30.22R
A. F. ACADEMY  FAIR      68  44  41 NW6       30.24R
SCHRIEVER AFB  FAIR      72  42  34 N8        30.22R
CHEYENNE MTN   MOCLDY    70  45  40 NW7       30.22R
ELLICOTT         N/A    N/A N/A N/A E6        30.20S
FALCON         FAIR      72  40  31 N5        30.27S
FORT CARSON    MOCLDY    71  53  52 N9        30.18R
LIMON          FAIR      71  49  45 S6        30.13S
MONUMENT HILL  MOCLDY    64  46  52 SW6       30.28F
CANON CITY     PTCLDY    79  52  38 N6        30.13R
WALSENBURG     FAIR      82  36  18 W5        30.15S
TRINIDAD       FAIR      77  46  33 S12       30.12F
$$

COZ042>045-048>051-090-091-180200-
...NORTHEAST COLORADO...

CITY           SKY/WX    TMP DP  RH WIND       PRES   REMARKS
GREELEY ARPT   FAIR      78  55  44 NE5       30.06S
AKRON          FAIR      79  45  29 SW5       30.04F
BURLINGTON     FAIR      77  53  43 W6        30.03F
WRAY           NOT AVBL
YUMA           FAIR      75  37  25 SE8       30.01F
STERLING       FAIR      79  52  38 SW6       29.97F
HOLYOKE        FAIR      79  59  50 SE10G16   29.97F
FORT MORGAN    FAIR      82  42  24 SW5       30.03F
$$

COZ086-089-092>099-180200-
...SOUTHEAST COLORADO...

CITY           SKY/WX    TMP DP  RH WIND       PRES   REMARKS
PUEBLO         FAIR      83  45  26 E12       30.07R
LA JUNTA       FAIR      81  46  29 N18G31    30.05F
LAMAR          FAIR      84  55  36 N15       29.99S
SPRINGFIELD      N/A     69  62  78 SE9       30.06R
$$



USA.gov is the U.S. government's official web portal to all federal, state and local government web resources and services.